Location: Zürich
(47.3769°N, 8.5417°E)
Time: 11:26:06
(UTC+02:00)

ISS - Pass Details

Date: 27 May 2021
Orbit: 417 x 422 km, 51.6° (Epoch: 13 June)

Event Time Altitude Azimuth Distance (km) Brightness Sun altitude
Rises 00:37:50 0° 287° (WNW) 2,367 0.4 -20.6°
Reaches altitude 10° 00:40:25 10° 266° (W) 1,500 -0.9 -20.7°
Enters shadow 00:40:49 12° 261° (W) 1,393 -1.1 -20.7°
